sat.trackr.live / text

‹ back to catalog

STARLINK-31701

NORAD 59582 · 2024-076U

PAYLOAD ACTIVE UNKNOWN

§ Identity

Operator
Country
US
Launch date
2024-04-23
Launch site
AFETR
Launch vehicle
Mass (kg)
RCS (m²)

Purposes: comms

External: N2YO · Heavens-Above · Gunter

§ Orbital elements

Epoch: 2026-09-21T12:44:06.546912Z

Period
94.26 min
Inclination
43.0028°
Eccentricity
0.0001316
Mean motion
15.27612160 rev/d
Perigee alt
482.0 km
Apogee alt
483.9 km
Semi-major
6,861.1 km
B*
-2.6161e-4
RAAN
343.0237°
Arg perigee
282.0515°
Mean anomaly
78.0189°
Rev number
13,636

§ Raw data

STARLINK-317011 59582U 24076U   26264.53063133 -.00007461  00000+0 -26161-3 0  99902 59582  43.0028 343.0237 0001316 282.0515  78.0189 15.27612160136367

JSON: /api/v1/satellites/59582 · /tle

For live sub-satellite position, see the globe view (requires WebGL).

§ Visibility from observer

Set your observer location to see the next 7 days of passes ≥ 10°. The values pass through the URL so the page stays shareable.

No JS? Fill the form by hand. The geolocation button needs JavaScript.